Location: Saint-Palais-sur-Mer
(45.6429°N, 1.0859°W)
Time: 23:40:57
(UTC+01:00)

Vanguard 1 - Pass Details

Date: 10 February 2026
Orbit: 653 x 3818 km, 34.2° (Epoch: 12 March)

Event Time Altitude Azimuth Distance (km) Brightness Sun altitude
Rises 23:05:39 0° 276° (W) 7,304 15.1 -47.9°
Reaches altitude 10° 23:10:28 10° 271° (W) 6,546 14.6 -48.5°
Enters shadow 23:30:06 46° 214° (SW) 4,551 13.1 -51.1°
